Time,TemperatureF,DewpointF,PressureIn,WindDirection,WindDirectionDegrees,WindSpeedMPH,WindSpeedGustMPH,Humidity,HourlyPrecipIn,Conditions,Clouds,dailyrainin,SoftwareType,DateUTC
2013-01-07 21:28:00,44.4,37.6,30.13,North,0,0.0,-999.0,77,-99.99,,,0.00,meteohub,2013-01-08 03:28:00,
2013-01-07 21:30:00,44.6,37.6,30.13,North,0,0.0,-999.0,76,-99.99,,,0.00,meteohub,2013-01-08 03:30:00,
2013-01-07 21:35:00,44.8,37.8,30.13,North,0,0.0,0.0,76,0.00,,,0.00,meteohub,2013-01-08 03:35:00,
2013-01-07 21:40:00,45.0,38.1,30.13,North,0,0.0,0.0,77,0.00,,,0.00,meteohub,2013-01-08 03:40:00,
2013-01-07 21:45:00,45.1,38.3,30.13,North,0,0.0,0.0,77,0.00,,,0.00,meteohub,2013-01-08 03:45:00,
2013-01-07 21:50:00,45.3,38.5,30.12,NE,45,0.0,0.0,77,0.00,,,0.00,meteohub,2013-01-08 03:50:00,
2013-01-07 21:55:00,45.9,38.3,30.12,NE,45,2.0,0.0,75,0.00,,,0.00,meteohub,2013-01-08 03:55:00,
2013-01-07 22:00:00,46.2,38.5,30.12,NE,45,1.0,2.0,74,0.00,,,0.00,meteohub,2013-01-08 04:00:00,
2013-01-07 22:05:00,46.2,38.5,30.12,NE,45,1.0,2.0,74,0.00,,,0.00,meteohub,2013-01-08 04:05:00,
2013-01-07 22:10:00,46.8,38.8,30.12,NE,45,0.0,2.0,74,0.00,,,0.00,meteohub,2013-01-08 04:10:00,
2013-01-07 22:15:00,46.8,39.2,30.12,NE,45,0.0,1.0,75,0.00,,,0.00,meteohub,2013-01-08 04:15:00,
2013-01-07 22:21:00,46.9,39.4,30.11,SE,135,0.0,1.0,75,0.00,,,0.00,meteohub,2013-01-08 04:21:00,
2013-01-07 22:26:00,46.9,39.4,30.12,SE,135,0.0,1.0,75,0.00,,,0.00,meteohub,2013-01-08 04:26:00,
2013-01-07 22:31:00,46.9,39.4,30.11,SE,135,0.0,1.0,75,0.00,,,0.00,meteohub,2013-01-08 04:31:00,
2013-01-07 22:36:00,46.9,39.4,30.11,SE,135,0.0,0.0,75,0.00,,,0.00,meteohub,2013-01-08 04:36:00,
2013-01-07 22:41:00,47.1,39.6,30.11,West,270,0.0,1.0,75,0.00,,,0.00,meteohub,2013-01-08 04:41:00,
2013-01-07 22:46:00,47.1,39.6,30.10,West,270,0.0,1.0,75,0.00,,,0.00,meteohub,2013-01-08 04:46:00,
2013-01-07 22:51:00,47.1,39.6,30.10,North,0,2.0,2.0,75,0.00,,,0.00,meteohub,2013-01-08 04:51:00,
2013-01-07 22:56:00,47.5,39.6,30.10,West,270,2.0,2.0,74,0.00,,,0.00,meteohub,2013-01-08 04:56:00,
2013-01-07 23:00:00,47.5,39.6,30.10,East,90,1.0,2.0,74,0.00,,,0.00,meteohub,2013-01-08 05:00:00,
2013-01-07 23:02:00,47.7,39.7,30.10,NW,315,2.0,3.0,74,0.00,,,0.00,meteohub,2013-01-08 05:02:00,
2013-01-07 23:03:00,47.7,39.7,30.10,SW,225,2.0,3.0,74,0.00,,,0.00,meteohub,2013-01-08 05:03:00,
2013-01-07 23:08:00,47.8,39.9,30.10,SW,225,1.0,3.0,74,0.00,,,0.00,meteohub,2013-01-08 05:08:00,
2013-01-07 23:13:00,48.0,39.7,30.10,NE,45,1.0,3.0,73,0.00,,,0.00,meteohub,2013-01-08 05:13:00,
2013-01-07 23:18:00,48.0,39.7,30.10,NE,45,2.0,4.0,73,0.00,,,0.00,meteohub,2013-01-08 05:18:00,
2013-01-07 23:23:00,48.2,39.6,30.10,NE,45,2.0,4.0,72,0.00,,,0.00,meteohub,2013-01-08 05:23:00,
2013-01-07 23:28:00,48.2,39.6,30.09,NE,45,2.0,4.0,72,0.00,,,0.00,meteohub,2013-01-08 05:28:00,
2013-01-07 23:34:00,48.2,39.6,30.09,East,90,2.0,2.0,72,0.00,,,0.00,meteohub,2013-01-08 05:34:00,
2013-01-07 23:39:00,48.2,39.6,30.09,NW,315,1.0,2.0,72,0.00,,,0.00,meteohub,2013-01-08 05:39:00,
2013-01-07 23:44:00,48.4,40.1,30.09,NE,45,2.0,2.0,73,0.00,,,0.00,meteohub,2013-01-08 05:44:00,
2013-01-07 23:49:00,48.4,40.1,30.09,NE,45,2.0,2.0,73,0.00,,,0.00,meteohub,2013-01-08 05:49:00,
2013-01-07 23:54:00,48.4,40.1,30.09,NE,45,0.0,2.0,73,0.00,,,0.00,meteohub,2013-01-08 05:54:00,
2013-01-07 23:59:00,48.4,40.1,30.09,East,90,2.0,2.0,73,0.00,,,0.00,meteohub,2013-01-08 05:59:00,